TimePDT,TemperatureF,Dew PointF,Humidity,Sea Level PressureIn,VisibilityMPH,Wind Direction,Wind SpeedMPH,Gust SpeedMPH,PrecipitationIn,Events,Conditions,WindDirDegrees,DateUTC
12:55 AM,43.0,27.0,53,29.66,10.0,NW,5.8,-,N/A,,Overcast,320,2012-03-31 07:55:00
1:55 AM,43.0,27.0,53,29.65,10.0,WNW,5.8,-,N/A,,Overcast,300,2012-03-31 08:55:00
2:55 AM,42.1,27.0,55,29.63,10.0,WNW,3.5,-,N/A,,Overcast,290,2012-03-31 09:55:00
3:55 AM,43.0,26.1,51,29.60,10.0,NNW,4.6,-,N/A,,Overcast,330,2012-03-31 10:55:00
4:55 AM,42.1,27.0,55,29.59,10.0,NW,10.4,-,N/A,,Overcast,320,2012-03-31 11:55:00
5:55 AM,39.0,30.0,70,29.58,10.0,NW,13.8,-,N/A,,Overcast,310,2012-03-31 12:55:00
6:38 AM,37.4,32.0,81,29.56,10.0,West,9.2,-,0.00,Rain,Light Rain,280,2012-03-31 13:38:00
6:55 AM,36.0,32.0,86,29.57,8.0,WNW,8.1,-,0.02,Rain,Light Rain,300,2012-03-31 13:55:00
7:20 AM,33.8,32.0,93,29.56,3.0,NW,5.8,-,0.02,Snow,Light Snow,310,2012-03-31 14:20:00
7:31 AM,33.8,32.0,93,29.56,1.8,WNW,5.8,-,0.03,Snow,Light Snow,300,2012-03-31 14:31:00
7:55 AM,33.1,30.9,92,29.57,1.2,WNW,3.5,-,0.05,Snow,Light Snow,300,2012-03-31 14:55:00
8:13 AM,33.8,30.2,87,29.55,1.5,WNW,4.6,-,0.01,Snow,Light Snow,290,2012-03-31 15:13:00
8:29 AM,33.8,30.2,87,29.54,1.8,NW,4.6,-,0.02,Snow,Light Snow,310,2012-03-31 15:29:00
8:39 AM,33.8,30.2,87,29.54,2.0,WNW,4.6,-,0.03,Snow,Light Snow,290,2012-03-31 15:39:00
8:55 AM,33.1,30.9,92,29.55,1.8,WNW,5.8,-,0.04,Snow,Light Snow,300,2012-03-31 15:55:00
9:09 AM,33.8,30.2,87,29.52,2.0,NW,3.5,-,0.01,Snow,Light Snow,310,2012-03-31 16:09:00
9:17 AM,33.8,30.2,87,29.52,1.5,NW,4.6,-,0.02,Snow,Light Snow,310,2012-03-31 16:17:00
9:38 AM,33.8,30.2,87,29.53,2.5,West,4.6,-,0.03,Snow,Light Snow,270,2012-03-31 16:38:00
9:50 AM,33.8,30.2,87,29.52,1.5,NW,3.5,-,0.04,Snow,Light Snow,310,2012-03-31 16:50:00
9:55 AM,33.1,30.9,92,29.54,1.2,NNW,3.5,-,0.04,Snow,Light Snow,340,2012-03-31 16:55:00
10:08 AM,33.8,30.2,87,29.51,2.5,WNW,3.5,-,0.00,Snow,Light Snow,300,2012-03-31 17:08:00
10:15 AM,33.8,32.0,93,29.51,4.0,WNW,4.6,-,0.00,Snow,Light Snow,290,2012-03-31 17:15:00
10:55 AM,34.0,32.0,92,29.52,7.0,NW,5.8,-,0.01,,Overcast,310,2012-03-31 17:55:00
11:21 AM,33.8,32.0,93,29.49,8.0,WNW,6.9,-,0.01,,Overcast,300,2012-03-31 18:21:00
11:36 AM,35.6,33.8,93,29.49,6.0,WNW,5.8,-,0.01,,Overcast,290,2012-03-31 18:36:00
11:55 AM,35.1,33.1,92,29.51,5.0,WNW,6.9,-,0.02,,Overcast,290,2012-03-31 18:55:00
12:55 PM,37.9,35.1,89,29.50,10.0,WNW,8.1,-,0.00,Rain,Light Rain,300,2012-03-31 19:55:00
1:52 PM,41.0,35.6,81,29.47,10.0,Calm,Calm,-,0.00,,Overcast,0,2012-03-31 20:52:00
1:55 PM,41.0,35.1,79,29.49,10.0,Calm,Calm,-,0.00,,Overcast,0,2012-03-31 20:55:00
2:14 PM,39.2,35.6,87,29.47,10.0,South,4.6,-,N/A,,Overcast,170,2012-03-31 21:14:00
2:30 PM,39.2,35.6,87,29.46,10.0,Calm,Calm,-,N/A,,Overcast,0,2012-03-31 21:30:00
2:55 PM,42.1,36.0,79,29.47,10.0,West,4.6,-,0.00,,Overcast,280,2012-03-31 21:55:00
3:36 PM,42.8,33.8,70,29.46,10.0,Calm,Calm,-,N/A,,Overcast,0,2012-03-31 22:36:00
3:55 PM,43.0,35.1,74,29.47,10.0,WNW,3.5,-,N/A,,Overcast,290,2012-03-31 22:55:00
4:55 PM,43.0,34.0,71,29.47,10.0,Calm,Calm,-,N/A,,Overcast,0,2012-03-31 23:55:00
5:02 PM,42.8,33.8,70,29.47,10.0,Calm,Calm,-,N/A,,Overcast,0,2012-04-01 00:02:00
5:55 PM,43.0,35.1,74,29.48,10.0,Calm,Calm,-,N/A,,Overcast,0,2012-04-01 00:55:00
7:55 PM,42.1,35.1,76,29.53,10.0,Calm,Calm,-,N/A,,Overcast,0,2012-04-01 02:55:00
8:20 PM,41.0,33.8,76,29.49,10.0,Calm,Calm,-,N/A,,Scattered Clouds,0,2012-04-01 03:20:00
8:55 PM,37.9,34.0,86,29.51,10.0,West,3.5,-,N/A,,Clear,280,2012-04-01 03:55:00
9:55 PM,37.9,34.0,86,29.52,10.0,NW,4.6,-,N/A,,Scattered Clouds,320,2012-04-01 04:55:00
10:13 PM,37.4,33.8,87,29.50,10.0,North,5.8,-,N/A,,Mostly Cloudy,350,2012-04-01 05:13:00
10:47 PM,37.4,33.8,87,29.51,10.0,Calm,Calm,-,N/A,,Scattered Clouds,0,2012-04-01 05:47:00
10:55 PM,37.0,34.0,89,29.54,10.0,Calm,Calm,-,N/A,,Scattered Clouds,0,2012-04-01 05:55:00
11:08 PM,37.4,33.8,87,29.52,10.0,East,3.5,-,N/A,,Mostly Cloudy,100,2012-04-01 06:08:00
11:24 PM,37.4,33.8,87,29.53,10.0,Calm,Calm,-,N/A,,Mostly Cloudy,0,2012-04-01 06:24:00
11:55 PM,37.0,34.0,89,29.55,10.0,Calm,Calm,-,0.00,Rain,Light Rain,0,2012-04-01 06:55:00